Voltar ao catálogo

DMSP 5D-2 F13 DEB

AtivoSSO
NORAD 40497·DEBRIS·🇺🇸 United States

Lançado Mar 24, 1995 de Vandenberg Space Force Base

Loading…

Próximas Passagens (próximas 24 horas)

TLE

EnvelhecendoSource: Space-Track

Época: Sep 8, 2026, 08:28 UTC

1 40497U 95015CL  26251.35289773  .00003571  00000-0  10792-2 0  9991
2 40497  98.6750 294.6682 0005866 113.7772 246.4033 14.43021025597398

Acompanhe DMSP 5D-2 F13 DEB em tempo real com AllMySat

Download on the App Store